Location: Tamazert
(32.6352°N, 5.2072°W)
Time: 15:11:25
(UTC+00:00)

NOSS 3-3 (A) - Pass Details

Date: 22 May 2022
Orbit: 783 x 1429 km, 63.4° (Epoch: 28 June)

Event Time Altitude Azimuth Distance (km) Brightness Sun altitude
Exits shadow 04:19:52 15° 233° (SW) 2,041 5.0 -11.5°
Maximum altitude 04:24:11 50° 305° (NW) 1,075 4.1 -10.8°
Drops below altitude 10° 04:30:05 10° 20° (NNE) 2,662 7.1 -9.7°
Sets 04:32:55 0° 26° (NNE) 3,709 8.1 -9.2°
